Regional Weather Roundup
Issued by NWS

Home | Current Version | Previous Version | Text Only | Print | Product List | Glossary Off
Versions: 1 2 3 4 5 6 7 8 9 10 11 12 13 14 15 16 17 18 19 20 21 22 23 24 25 26 27 28 29 30 31 32 33 34 35 36 37 38 39 40 41 42 43 44 45 46 47 48 49 50

000
ASUS44 KMEG 262300
RWRTN
TENNESSEE HOURLY STATE WEATHER ROUNDUP
NATIONAL WEATHER SERVICE MEMPHIS TN
500 PM CST WED NOV 26 2014

TNZ002-004-019-021-049-052-054-088>092-270000-
WEST TENNESSEE

CITY           SKY/WX    TMP DP  RH WIND       PRES   REMARKS
MEMPHIS INTL   PTCLDY    46  34  62 NW12G18   30.08R
NWS MEMPHIS      N/A     46 N/A N/A MISG        N/A
JACKSON        CLOUDY    47  34  60 W13G21    30.03R
DYERSBURG      MOCLDY    43  27  52 W13       30.06R
UNION CITY     CLOUDY    39  36  87 W10       30.01R WCI  32
PARIS          CLOUDY    37  36  93 CALM      30.00F
LEXINGTON      CLOUDY    45  34  65 SW10      30.00R
SAVANNAH       CLOUDY    45  34  65 W3        30.01S
$$

TNZ008-025-027-028-033-062-065-066-270000-
NORTH MIDDLE TENNESSEE

CITY           SKY/WX    TMP DP  RH WIND       PRES   REMARKS
NASHVILLE      CLOUDY    48  26  42 SE9       29.98F
CLARKSVILLE    LGT RAIN  44  33  65 SW13      30.01R
COOKEVILLE     PTCLDY    43  27  52 S3        30.01F
CROSSVILLE     CLOUDY    43  21  41 CALM      30.01F
$$

TNZ061-075-076-078-094-096-097-270000-
SOUTH MIDDLE TENNESSEE

CITY           SKY/WX    TMP DP  RH WIND       PRES   REMARKS
TULLAHOMA      CLOUDY    46  25  42 SE6       30.00F
WINCHESTER     CLOUDY    45  32  61 SE3       30.01F
SHELBYVILLE    MOCLDY    48  28  46 S8        30.00F
$$

TNZ017-018-042-046-047-270000-
NORTHEAST TENNESSEE

CITY           SKY/WX    TMP DP  RH WIND       PRES   REMARKS
TRI CITIES     PTCLDY    40  37  89 E3        30.00S
ELIZABETHTON   PTCLDY    34  34 100 CALM      30.01R
$$

TNZ012-013-036-069-073-074-270000-
CENTRAL EAST TENNESSEE

CITY           SKY/WX    TMP DP  RH WIND       PRES   REMARKS
KNOXVILLE      CLOUDY    46  28  49 SW10      30.03R
OAK RIDGE      MOCLDY    50  22  33 SW6       30.04R
GATLINBURG     CLEAR     46  19  34 SW6       30.02S
$$

TNZ083-085-099-270000-
SOUTHEAST TENNESSEE

CITY           SKY/WX    TMP DP  RH WIND       PRES   REMARKS
CHATTANOOGA    MOCLDY    50  24  36 CALM      30.04F
$$

SKY/WX REPORTED AS FAIR MEANS FEW OR NO CLOUDS BELOW
12 THOUSAND FEET.



USA.gov is the U.S. government's official web portal to all federal, state and local government web resources and services.